Theta_e
283 283 283 283 283 283 283 284 283 283 282 281 280 281 281 281 282 281 282 282 283 283 282 281 282 282 281 281 280 279 280 280 279 279 279 280 280 280 280 280 280 280 280 281 281 281 281 282 282 283 283 283 283 283 284 284 284 284 284 285 285 285
282 282 282 283 284 284 284 283 282 282 282 282 283 282 282 282 283 282 282 283 283 282 282 282 282 282 281 280 280 280 280 280 280 280 280 280 281 280 280 280 280 280 279 280 280 280 280 280 280 281 281 282 282 282 283 283 284 283 283 283 284 285
280 281 280 281 282 281 282 283 284 284 284 283 282 281 280 279 279 278 279 280 281 280 280 280 279 279 279 278 279 279 279 280 280 280 280 280 280 280 280 280 280 280 280 280 280 280 280 280 281 281 280 279 280 281 281 282 282 282 283 283 284 284
282 283 283 283 282 282 283 282 281 281 282 282 280 279 279 279 280 279 278 279 279 278 278 278 278 279 278 277 277 278 278 279 279 279 279 279 280 280 280 280 280 280 280 279 280 279 279 280 280 280 279 279 279 279 281 282 281 281 281 282 282 282
284 283 283 283 284 284 283 283 283 283 281 281 279 279 280 279 280 279 278 278 278 277 277 276 277 277 277 277 278 277 278 278 278 279 279 279 279 279 279 280 280 280 280 280 280 280 279 279 279 279 278 278 278 279 279 280 280 280 280 281 281 281
282 281 281 281 281 281 282 282 281 280 280 279 279 278 279 279 278 279 279 279 278 276 276 276 276 276 276 276 277 276 277 277 277 278 278 278 278 278 279 278 279 279 279 279 279 279 279 279 279 279 279 278 278 278 278 279 279 279 280 280 281 281
278 279 279 279 279 279 279 279 280 279 280 279 279 279 278 277 277 277 277 277 277 276 276 275 275 275 276 276 276 276 276 276 277 277 277 277 278 278 278 278 277 277 278 278 278 278 278 279 279 279 279 279 278 278 278 278 278 278 278 279 280 281
278 278 278 278 278 279 278 278 279 279 279 279 278 278 278 278 277 276 276 276 276 276 275 276 276 276 276 276 276 276 276 277 276 276 276 276 277 277 277 277 277 277 277 278 278 278 278 278 278 278 278 278 278 278 278 278 278 278 278 278 279 279
278 278 278 278 278 278 278 279 278 278 279 279 278 278 278 278 277 277 276 276 275 276 276 276 276 276 276 276 277 277 277 277 276 276 276 276 276 276 276 276 276 277 277 277 277 277 277 277 278 278 277 277 277 277 277 277 278 278 278 278 278 279
278 278 278 277 278 278 278 278 278 278 278 278 278 277 278 278 277 276 276 276 276 276 276 276 276 276 277 277 277 277 277 277 277 277 277 277 277 276 276 276 276 276 276 276 276 277 277 277 277 277 277 277 276 276 276 277 277 277 277 278 278 279
278 278 278 278 278 277 278 278 277 277 277 277 277 277 277 277 277 276 275 275 275 275 275 276 276 276 276 276 276 276 276 276 276 277 276 276 276 277 276 276 276 276 276 276 276 276 276 276 276 276 276 276 276 277 276 277 277 277 277 278 278 279
278 278 278 278 277 277 277 276 276 277 277 277 276 277 276 275 275 275 275 275 275 275 275 275 275 275 275 275 275 275 275 275 275 275 274 274 274 274 275 274 275 275 275 275 275 276 276 276 276 278 280 281 279 278 278 278 277 277 277 277 277 278
277 277 276 276 276 276 276 277 276 276 276 276 275 275 275 274 274 274 274 274 274 274 274 274 274 274 274 274 274 273 273 273 273 272 272 272 272 272 273 273 273 274 274 274 274 274 275 275 276 279 280 281 282 279 278 277 277 277 277 277 276 276
276 276 276 275 275 276 276 276 276 275 275 275 275 274 274 274 274 274 273 273 273 273 273 273 273 272 272 272 271 271 271 270 270 270 270 270 270 271 272 271 272 272 272 272 272 272 273 273 276 279 279 280 280 280 277 277 277 277 276 276 276 276
276 276 275 275 276 276 276 276 275 275 274 274 274 274 273 273 273 273 272 272 272 272 272 271 270 270 269 269 269 269 268 268 268 267 268 268 269 269 269 269 269 269 269 270 269 270 270 271 274 276 277 278 278 279 278 276 276 276 276 276 276 276
275 275 276 276 276 275 275 274 274 274 273 273 273 273 272 272 272 271 271 270 270 270 270 269 268 267 267 267 267 266 266 266 266 266 267 267 267 266 266 266 266 266 267 267 267 267 268 268 271 274 275 276 277 277 277 274 274 274 274 274 274 274
275 275 275 275 275 274 273 273 273 272 272 272 271 271 270 269 269 268 269 268 268 268 267 267 266 266 265 265 265 264 264 264 264 265 265 265 264 264 264 264 264 264 265 265 265 265 265 265 270 272 273 274 275 276 276 273 273 273 273 274 274 274
276 275 275 275 273 273 272 272 272 271 270 270 270 268 268 268 266 267 267 266 266 266 267 265 264 264 263 263 263 263 263 263 263 263 263 263 263 263 263 263 263 263 263 263 263 263 262 263 269 271 272 273 274 275 271 270 269 269 269 270 271 271
276 275 274 273 272 271 271 271 270 268 268 267 266 266 266 266 265 266 266 265 265 264 264 264 263 262 262 262 261 261 261 262 262 262 262 261 261 261 261 261 261 262 262 262 262 261 262 262 266 270 271 272 273 272 268 268 268 268 268 268 269 269
275 274 272 271 270 270 270 268 267 267 266 265 266 264 265 264 264 265 263 263 262 263 263 262 261 261 261 260 260 260 261 261 261 261 261 260 260 260 260 260 260 261 261 261 261 261 261 261 265 269 270 271 272 271 268 268 267 267 268 268 269 269
274 272 271 270 269 269 268 266 265 265 265 265 265 264 263 263 264 263 262 263 263 263 262 261 261 261 260 260 260 260 260 260 260 260 261 260 260 260 260 260 260 260 260 260 260 263 262 261 263 268 269 270 271 269 268 268 267 267 267 267 267 268
271 270 269 268 268 267 266 264 264 263 264 264 264 263 261 263 262 263 262 262 262 262 260 260 260 260 259 259 259 259 259 260 259 259 259 259 259 259 259 259 259 258 259 260 260 260 261 261 261 263 269 270 271 272 268 268 267 266 266 267 267 267
272 270 268 268 267 265 264 263 262 262 263 263 262 260 262 262 262 262 261 262 260 260 259 259 259 259 259 259 259 259 259 259 259 259 258 258 258 258 258 258 258 258 259 259 260 260 260 261 261 262 268 270 271 271 271 267 267 267 267 266 267 267
268 267 266 266 266 264 263 262 261 261 261 261 260 260 262 262 261 261 259 259 258 259 258 258 258 258 258 258 258 258 258 259 258 258 258 258 258 257 257 258 258 258 258 259 260 260 260 262 264 262 266 269 270 271 272 268 267 268 267 267 267 268
267 266 265 265 264 264 263 259 259 259 260 259 260 261 261 261 260 260 259 258 258 257 257 257 257 257 258 258 258 257 257 258 257 257 258 257 257 257 257 257 257 257 257 258 259 259 260 260 261 266 265 269 270 271 272 272 271 273 270 268 267 267
266 265 264 264 262 262 262 259 258 258 258 259 261 260 260 258 258 257 256 256 256 256 256 256 256 257 257 257 257 257 257 257 257 257 257 257 257 256 256 257 257 257 257 257 257 258 259 260 261 264 267 267 270 271 272 273 274 274 271 270 269 269
265 264 263 263 261 260 259 258 257 257 256 259 259 259 258 257 256 255 255 255 255 255 256 256 256 256 256 256 256 256 257 257 256 256 257 257 256 256 256 256 256 256 256 257 257 258 259 260 261 261 264 269 270 271 272 273 274 274 274 270 269 269
262 261 261 261 260 260 258 258 257 255 257 259 259 258 257 255 254 254 255 254 255 255 255 255 256 256 256 256 257 257 257 256 256 256 256 256 256 256 256 256 256 256 257 257 258 259 261 262 262 262 262 265 267 268 270 272 272 273 273 273 271 274
261 260 259 259 259 258 258 256 257 257 257 256 258 258 255 253 253 255 255 255 255 255 255 255 256 256 257 256 257 257 257 257 256 256 256 256 256 256 256 257 257 258 258 259 260 261 262 263 263 264 264 264 264 264 265 267 267 270 271 269 268 270
261 260 259 259 259 259 257 256 256 256 256 256 257 254 253 253 253 254 254 254 254 255 255 255 257 257 256 256 256 256 256 256 256 255 256 256 257 257 257 258 259 259 260 261 262 263 264 264 265 265 266 266 266 267 267 267 266 265 265 265 265 265
260 259 258 258 259 257 256 255 255 255 256 257 255 253 252 253 254 254 254 254 254 254 256 256 256 255 256 256 256 256 256 256 256 257 258 260 260 260 260 260 262 264 265 265 265 264 264 265 265 266 270 270 273 271 270 270 270 269 267 267 270 267
258 258 257 258 258 256 255 254 254 254 257 254 253 253 252 253 253 252 253 254 254 254 255 255 255 255 256 255 255 256 256 260 265 264 262 262 265 269 270 270 266 267 267 267 267 267 266 266 267 272 274 273 274 275 275 275 275 275 274 275 277 275
258 256 256 257 256 255 255 255 254 254 254 255 255 254 253 252 253 253 254 254 254 255 256 255 255 255 255 256 256 256 256 256 258 264 266 267 267 269 270 271 271 272 272 269 267 269 272 273 273 274 274 274 273 273 275 275 275 275 276 276 273 271
257 257 256 257 256 254 254 254 254 253 254 253 253 253 253 252 252 253 254 254 254 256 256 255 256 256 255 256 256 255 256 255 255 257 264 267 267 268 269 270 270 271 271 271 270 269 267 270 273 273 274 274 274 274 274 275 275 276 276 276 276 270
258 257 256 255 254 253 253 253 254 253 253 254 253 253 252 252 252 253 253 254 255 255 256 256 255 255 255 255 255 255 255 256 255 255 256 259 266 268 268 268 269 269 270 270 271 271 271 271 272 273 273 273 274 274 274 275 275 275 275 275 270 267
256 256 254 253 252 253 252 253 254 253 253 253 253 253 252 252 252 252 253 254 254 255 255 255 255 255 255 256 256 255 256 256 257 257 257 257 257 259 263 267 268 268 269 269 270 270 270 271 271 272 272 273 273 273 273 273 269 272 273 271 267 267
255 254 254 254 253 253 253 254 254 253 253 252 251 250 250 251 252 252 255 256 256 254 255 255 256 256 255 256 255 256 256 257 257 258 257 257 257 257 257 258 260 264 268 266 267 269 270 270 270 271 272 272 272 271 271 269 263 263 264 265 265 266
254 253 253 254 254 252 253 254 254 254 252 251 250 250 250 252 253 253 254 254 255 255 255 255 255 255 255 255 256 257 257 257 257 257 257 257 257 257 257 258 259 259 264 267 267 268 268 269 270 271 271 269 269 269 268 261 260 260 261 262 263 263
Wind_Speed
3 3 3 2 2 3 3 3 3 4 4 4 4 4 4 4 5 5 5 6 5 5 5 6 7 7 6 6 5 4 5 5 4 4 4 4 4 5 5 5 5 6 6 5 6 6 6 6 7 8 8 8 8 8 7 6 5 6 7 7 6 6
2 2 2 2 2 2 1 2 2 3 1 2 2 3 4 4 5 5 5 4 5 5 5 5 4 4 4 5 6 7 7 6 7 8 8 7 7 6 5 6 6 7 7 6 6 7 6 6 6 5 6 7 7 8 8 8 6 6 6 7 6 5
2 2 2 1 1 0 0 2 4 3 1 2 2 3 2 4 3 4 4 4 5 5 5 4 4 5 4 5 5 5 5 6 6 6 6 7 9 8 9 8 9 8 8 9 9 9 9 9 9 7 6 6 6 7 7 8 8 8 7 6 8 5
4 3 2 0 1 2 2 2 3 3 4 4 3 2 1 2 2 2 2 2 2 2 2 3 1 1 2 2 4 4 5 6 6 6 5 6 7 7 8 9 9 8 8 7 8 7 7 8 8 9 7 8 8 8 6 6 7 8 9 7 8 8
4 4 3 3 3 3 3 3 4 4 4 4 3 3 2 2 1 0 0 1 1 1 1 2 2 3 4 4 5 5 6 6 6 5 6 6 7 6 6 7 8 9 10 11 11 11 10 10 9 8 7 8 9 10 9 7 7 8 8 9 9 8
2 2 3 3 3 4 4 4 3 3 3 3 4 3 3 3 3 1 1 0 0 0 1 2 3 3 3 4 4 5 5 6 6 5 5 6 6 7 7 5 7 7 8 9 10 10 11 12 11 11 9 9 9 10 11 10 9 9 9 10 10 9
3 4 4 5 5 4 4 4 4 3 4 2 4 4 4 4 3 2 2 2 1 1 1 2 2 2 3 4 4 4 4 4 5 5 5 6 7 7 7 7 5 6 6 8 8 9 9 10 11 12 13 12 8 8 9 10 10 10 10 10 10 10
5 5 5 5 5 5 4 4 4 4 4 4 4 4 3 4 3 4 3 3 2 2 2 3 2 4 4 5 5 5 5 5 5 6 5 5 7 7 6 7 8 7 10 10 10 9 10 9 9 10 11 12 12 13 12 11 10 10 10 10 10 10
7 7 6 6 5 5 5 5 5 5 5 5 4 4 4 4 4 4 4 2 2 1 2 4 4 4 5 5 6 6 5 6 6 6 7 6 5 7 8 7 8 8 8 10 10 10 11 11 11 10 10 10 10 10 12 13 14 13 11 10 11 11
6 6 6 5 6 6 5 4 5 5 6 7 4 3 2 2 2 2 1 0 2 4 5 5 5 6 7 7 7 8 8 8 8 9 8 7 9 9 9 10 11 11 9 10 10 10 9 9 10 10 9 8 8 9 10 11 12 13 14 15 14 12
7 6 6 6 5 5 6 5 3 2 3 3 2 1 1 1 0 1 2 4 4 4 4 5 4 4 5 6 7 8 9 9 9 9 9 9 9 9 10 11 12 13 13 12 11 11 10 10 10 8 7 8 10 9 10 11 11 12 13 13 14 15
6 6 5 5 4 2 2 2 1 1 2 3 3 4 3 3 4 4 4 4 4 4 4 5 4 5 5 7 8 8 8 8 9 10 10 11 11 11 11 12 12 11 12 13 13 12 11 11 9 10 18 18 13 12 11 10 11 11 12 13 14 15
4 4 4 3 1 2 1 1 2 3 4 3 4 4 3 3 4 4 4 5 4 5 6 6 7 7 9 8 8 7 8 10 9 9 10 11 11 12 12 12 13 12 11 12 13 14 13 12 11 22 23 24 26 18 13 12 12 12 13 13 14 14
5 5 5 4 3 4 4 4 4 4 3 3 3 3 3 4 4 5 4 4 5 5 7 7 7 8 8 8 8 9 9 9 10 10 11 11 12 12 11 12 12 13 13 12 13 13 13 13 18 26 26 26 26 24 17 13 13 12 13 13 13 12
6 6 5 5 6 5 4 5 4 4 3 3 1 2 4 4 4 4 4 5 6 6 5 6 6 6 6 7 7 8 9 10 11 11 11 12 11 11 12 13 14 14 13 13 13 14 13 12 20 26 27 27 27 27 23 13 14 13 13 13 13 13
4 5 7 7 5 5 4 3 5 4 3 2 2 4 4 4 5 4 4 3 3 4 5 6 5 6 6 6 7 8 9 9 10 10 9 10 11 11 12 12 13 13 12 12 12 13 13 13 19 26 27 27 28 27 24 14 14 13 13 14 12 12
6 6 5 5 6 5 5 4 3 3 3 3 4 3 3 2 3 3 3 3 4 5 4 6 5 6 7 7 8 8 9 9 10 10 9 9 10 11 12 12 13 12 11 11 12 13 15 13 24 26 28 27 27 27 24 14 15 13 13 12 12 12
11 10 8 5 6 4 4 4 3 3 2 2 3 2 2 2 2 3 2 3 4 4 5 4 5 6 6 8 8 8 10 9 9 10 10 10 10 9 9 11 9 11 12 11 11 13 14 14 24 25 26 26 25 28 17 14 15 15 16 17 18 18
8 8 7 6 5 5 4 3 3 3 2 2 2 2 1 1 1 1 2 2 3 3 4 5 5 6 6 7 8 9 9 10 11 9 8 10 10 10 10 9 10 9 11 12 11 13 14 12 18 24 26 26 27 22 13 13 12 13 13 16 17 16
6 6 8 8 6 4 4 3 3 3 2 1 1 1 1 1 0 1 2 2 2 3 4 4 4 6 7 7 8 9 9 9 9 9 8 9 11 10 9 9 10 9 9 12 13 11 13 12 17 25 26 26 26 23 16 13 13 14 13 15 15 14
8 8 7 7 7 4 3 3 3 3 1 0 0 0 0 0 0 1 1 3 3 3 4 4 4 5 7 8 9 8 10 9 9 9 8 9 8 10 8 10 10 10 9 10 12 18 18 14 16 24 25 26 25 20 13 13 12 14 15 14 15 13
9 6 7 6 6 4 4 3 3 1 2 1 1 0 1 1 0 1 2 3 4 4 3 4 5 6 7 9 9 8 9 8 9 9 9 9 8 9 8 9 9 11 11 11 12 12 12 14 12 16 26 24 25 25 17 12 12 13 15 14 12 13
8 9 7 6 6 5 3 3 3 2 2 2 2 2 2 1 0 2 3 3 4 4 4 4 5 8 8 7 9 9 8 8 9 9 9 9 8 8 10 11 11 11 11 10 10 11 11 11 13 14 24 24 25 26 23 12 13 12 13 12 14 12
5 6 5 4 6 5 4 3 3 2 3 2 2 3 2 1 2 2 3 4 4 4 5 6 6 6 7 7 8 9 10 8 8 8 9 8 8 10 11 11 10 10 11 10 10 10 11 12 19 15 20 24 25 26 28 17 13 15 14 14 12 11
8 7 7 5 5 4 3 3 2 2 1 2 3 2 1 2 2 3 3 4 5 5 6 6 7 8 6 7 8 9 11 9 8 8 8 9 10 10 11 11 10 10 11 10 9 9 10 11 12 20 18 23 26 28 28 29 23 27 19 14 14 12
6 6 5 5 4 3 3 3 2 2 2 4 2 1 1 1 2 2 4 4 5 6 6 6 7 7 7 8 8 8 10 10 8 8 8 8 8 9 10 10 9 10 10 11 11 10 10 10 10 15 22 22 27 27 28 29 30 30 19 15 12 10
9 7 5 5 4 3 3 3 3 2 3 2 2 1 2 2 2 3 4 5 5 6 6 6 6 7 7 7 7 8 9 9 7 9 8 7 8 9 10 10 9 9 10 10 11 11 10 10 10 10 15 23 25 28 29 30 31 30 30 20 14 14
6 6 6 4 4 4 4 3 4 3 3 1 1 2 2 2 2 4 5 5 5 6 6 7 7 6 7 7 6 7 8 8 8 8 9 8 9 9 10 11 10 10 10 10 11 11 11 11 10 10 10 12 17 19 26 31 31 31 31 30 23 29
7 7 6 6 5 5 4 3 3 4 3 3 3 2 2 2 3 4 5 6 6 5 5 6 6 6 6 5 6 7 7 7 6 7 9 9 9 9 10 11 11 11 10 11 11 11 11 11 10 10 10 10 11 11 14 16 17 25 28 20 16 20
9 7 7 7 6 5 4 3 4 3 3 3 3 3 2 3 4 5 5 6 6 5 5 6 7 7 7 7 7 8 8 7 5 6 9 10 10 11 11 11 11 11 10 10 10 11 10 10 10 10 11 12 12 12 12 12 12 12 12 12 13 15
7 7 7 6 5 5 4 4 3 3 3 3 3 2 2 4 4 4 5 6 5 5 4 5 6 6 7 8 7 7 8 9 8 8 10 11 9 10 10 9 10 11 10 10 11 10 9 11 11 11 17 19 24 21 16 12 11 10 8 14 22 17
7 7 6 4 4 4 4 3 3 3 3 3 3 3 3 4 4 4 5 5 5 5 5 5 5 5 6 7 8 9 10 11 17 12 10 11 18 24 25 22 15 14 13 12 10 9 11 11 13 26 32 30 30 31 32 29 29 28 22 24 32 22
5 5 4 4 4 4 3 3 3 3 4 4 4 4 4 4 3 4 5 4 4 5 5 6 6 6 6 6 7 7 8 12 15 18 18 18 20 21 24 24 26 27 25 18 13 14 25 28 30 30 29 31 29 30 30 31 31 31 31 31 20 12
5 5 5 3 4 3 3 3 4 4 4 4 4 4 4 4 4 5 5 4 4 5 6 5 6 6 6 7 6 6 7 8 11 17 23 21 17 21 22 23 23 23 22 24 23 19 14 20 27 30 29 29 30 30 31 30 30 29 28 25 22 10
5 3 3 3 3 2 3 4 4 4 4 4 4 4 4 4 4 5 5 4 4 5 7 6 6 6 6 7 7 7 7 7 9 10 14 22 29 28 20 17 18 20 21 25 25 26 24 24 26 29 29 29 29 30 28 29 29 27 25 23 11 6
4 3 4 3 3 3 3 5 5 4 4 4 4 4 4 4 5 4 4 4 4 6 6 5 5 6 6 6 6 7 7 8 8 9 10 12 14 20 27 30 26 22 22 23 25 24 24 25 27 27 28 28 28 28 26 25 19 23 22 17 9 8
4 3 3 3 3 3 4 6 5 4 4 4 4 4 4 4 5 4 5 7 6 4 5 6 5 6 6 6 6 6 7 8 8 9 9 9 10 12 13 13 19 25 28 24 22 24 27 27 27 28 27 28 27 26 26 22 12 14 13 13 10 10
3 3 2 2 3 3 4 8 5 3 4 4 4 4 4 5 4 4 4 3 5 5 5 5 5 5 6 6 6 6 7 7 8 9 8 9 9 9 10 11 12 13 19 26 23 25 26 28 27 27 26 24 24 24 23 12 11 11 11 11 11 11
Wind_Direction
95 77 73 42 46 52 73 58 63 55 45 43 55 38 31 25 24 24 25 29 25 24 24 29 24 21 18 9 4 354 6 3 2 2 342 330 331 335 333 333 330 327 327 329 322 324 323 325 329 333 333 333 329 328 321 318 324 321 312 302 301 294
150 144 140 125 123 126 145 138 98 84 73 60 43 35 30 27 24 24 27 12 27 15 24 21 27 26 17 7 6 356 352 344 345 345 349 346 339 337 333 335 334 332 329 326 320 314 314 312 308 314 316 321 321 319 322 317 322 316 309 305 301 295
194 204 194 189 233 304 246 202 162 184 177 141 116 99 42 35 15 31 16 17 14 27 15 7 13 9 7 3 359 349 333 330 331 335 332 337 337 336 333 333 331 327 328 327 328 327 323 322 317 314 308 305 299 303 305 311 316 315 308 304 303 297
174 179 203 226 279 257 224 219 176 165 181 175 168 125 117 97 22 35 6 20 34 33 353 333 311 330 354 1 342 340 330 329 325 317 333 329 316 328 320 321 323 320 316 312 307 307 305 306 307 311 313 308 305 298 290 293 301 304 305 308 304 304
185 194 205 224 214 224 212 194 169 169 172 178 179 141 194 189 210 217 149 59 31 329 315 326 330 342 338 352 336 333 326 321 318 318 322 312 310 309 305 305 310 313 316 317 315 316 315 311 307 305 306 305 305 303 302 297 292 291 291 295 292 294
190 191 214 203 192 189 187 180 182 196 186 190 171 181 207 211 223 208 151 258 304 303 338 328 314 338 322 337 317 313 308 311 309 311 310 300 298 297 291 289 290 292 293 294 297 303 306 309 308 306 300 295 298 300 301 305 303 294 288 285 287 287
187 197 188 179 190 192 182 189 195 198 213 208 198 220 213 217 207 188 215 195 229 284 268 285 283 281 299 304 301 290 290 289 290 292 293 299 301 300 301 298 282 281 279 279 283 286 288 293 299 302 304 302 294 287 292 296 298 297 294 289 284 282
188 183 186 189 191 188 196 206 204 212 222 224 217 212 225 228 197 204 194 202 202 249 250 268 293 319 328 322 318 314 307 304 300 298 291 283 287 291 288 287 297 294 296 296 293 289 287 284 282 284 288 294 303 308 305 299 292 290 289 290 290 287
194 194 193 193 198 199 202 199 211 215 215 235 236 226 216 218 194 208 203 207 216 275 340 347 341 331 332 334 328 325 324 321 318 313 311 307 294 296 299 294 289 291 286 288 289 287 287 288 286 286 287 291 293 296 298 302 304 301 296 287 285 283
200 203 210 213 218 213 218 221 214 206 205 219 235 243 245 302 217 236 227 72 26 21 354 348 340 343 340 337 335 333 332 329 326 323 319 321 317 313 311 310 309 304 300 293 291 287 284 281 281 280 279 280 283 286 286 287 289 292 296 299 296 290
205 213 218 223 225 224 227 233 264 326 335 356 26 88 39 274 164 63 45 30 19 0 344 339 339 339 339 332 333 335 332 329 326 325 324 322 317 313 312 310 309 308 306 303 298 297 293 288 286 287 288 289 287 280 279 281 281 284 287 288 291 294
212 216 219 225 229 272 337 338 336 2 40 34 35 50 18 54 50 43 21 20 2 349 344 339 336 338 339 339 339 334 329 328 327 325 323 319 316 314 311 308 306 303 302 304 305 302 301 297 295 295 301 303 302 299 296 292 290 289 287 287 289 288
225 233 238 240 203 201 185 140 92 97 82 66 54 42 11 41 32 29 26 5 2 351 348 347 346 348 348 344 336 332 332 328 326 322 318 315 313 312 310 309 309 307 307 308 308 307 304 302 302 306 308 308 307 306 302 299 294 290 286 283 282 282
214 213 210 192 171 144 134 122 108 84 74 58 42 18 20 36 35 27 17 8 354 356 355 351 347 349 343 342 335 333 331 328 324 321 317 314 314 313 313 312 311 312 316 313 310 306 304 304 307 310 311 309 307 305 303 299 294 289 285 283 279 278
182 173 157 152 153 144 149 140 112 95 96 64 19 36 39 39 34 17 14 5 1 353 354 351 350 341 337 334 334 329 329 324 319 318 317 314 315 317 315 315 316 312 314 313 310 308 306 306 312 312 309 307 306 304 303 296 290 285 283 281 278 278
164 162 160 160 153 133 127 116 114 121 115 105 58 56 29 29 16 20 359 2 351 359 357 352 346 335 330 331 328 325 319 318 312 312 313 313 317 316 312 312 312 312 313 314 313 308 308 309 316 313 309 308 307 305 303 295 291 285 282 282 279 280
165 158 159 158 145 139 124 98 109 110 72 54 55 51 44 28 16 7 359 3 2 8 354 350 339 330 326 324 322 318 313 311 311 312 315 314 312 313 312 313 314 311 312 311 312 309 306 310 313 311 309 308 306 304 303 297 297 293 288 283 278 275
173 172 167 146 127 123 113 117 118 111 116 96 89 64 38 32 14 353 9 17 10 358 346 340 328 322 320 317 316 314 311 311 309 310 311 307 303 298 299 299 301 303 305 305 305 302 301 306 311 308 307 307 307 307 305 302 298 294 291 290 289 288
169 157 135 133 130 126 129 134 133 124 109 77 59 61 28 39 0 347 35 17 350 335 331 323 317 312 311 310 309 307 306 308 307 303 304 299 297 297 299 296 298 300 299 300 300 299 298 300 306 306 306 306 305 306 299 293 286 284 286 287 288 287
131 133 136 133 125 124 125 123 107 95 72 62 29 52 16 37 282 69 28 334 311 314 309 310 307 304 304 302 299 299 298 297 293 292 296 293 298 297 294 297 297 293 294 295 295 293 294 297 302 304 304 303 303 301 297 295 290 284 284 287 287 289
145 140 130 130 131 134 120 112 100 93 102 152 229 80 0 250 121 48 321 296 299 295 297 296 297 296 297 295 292 293 293 293 291 291 291 286 287 288 294 295 294 293 291 287 286 294 297 295 298 300 301 301 301 300 293 291 286 287 288 289 291 290
126 133 143 148 148 138 130 114 109 131 178 202 166 184 218 186 133 282 290 286 288 287 286 290 290 287 287 289 289 287 284 286 290 289 290 288 287 291 293 290 288 290 290 289 289 288 290 291 291 293 297 300 300 300 298 289 288 288 288 283 280 286
157 161 163 151 141 138 137 132 138 182 186 178 170 211 193 161 250 277 277 285 285 283 285 284 279 283 280 278 285 286 285 284 285 291 289 291 293 289 292 291 290 288 287 286 284 283 285 284 288 289 295 298 300 299 299 289 283 283 282 282 280 276
136 130 131 141 144 149 150 142 159 186 177 170 206 210 158 189 244 266 276 280 282 283 284 278 275 272 277 282 282 286 285 281 280 283 287 289 294 295 292 291 290 287 284 283 282 282 283 283 286 286 289 293 296 297 296 294 283 283 282 281 273 275
164 167 162 158 156 154 152 131 162 181 184 199 227 177 190 222 247 267 272 281 282 280 278 275 275 279 279 281 280 283 287 288 288 285 287 294 297 292 291 290 288 287 286 286 283 281 278 277 275 283 286 290 293 294 295 293 292 290 289 284 282 280
163 160 163 161 158 151 148 148 171 185 198 239 199 195 210 239 259 267 279 279 279 280 277 275 276 274 277 278 283 280 283 290 292 292 294 297 294 294 292 288 286 286 285 288 289 280 276 271 271 275 282 287 288 291 291 290 290 291 287 281 277 277
169 162 168 171 161 166 175 173 155 187 217 221 162 238 240 254 260 277 278 278 277 275 273 274 275 278 276 276 277 283 288 291 298 301 300 298 294 290 288 287 284 280 281 283 282 282 278 273 267 266 270 279 286 289 289 288 286 286 287 286 281 276
149 159 173 189 175 184 179 188 163 188 223 204 220 242 243 258 275 279 275 275 274 273 278 285 282 275 272 274 271 272 280 285 296 297 298 297 288 288 287 287 283 277 278 278 278 282 281 277 273 270 267 266 272 274 278 280 280 279 280 278 278 279
159 176 177 192 199 187 200 190 200 203 232 243 243 241 247 260 267 272 278 279 278 278 279 284 289 290 283 281 282 278 278 280 278 287 291 290 289 285 282 281 281 281 279 279 280 279 282 280 276 275 272 271 271 265 264 267 267 266 268 271 270 269
176 180 180 197 197 187 194 204 213 224 226 238 240 241 242 259 261 269 276 280 280 282 282 283 284 290 296 291 290 293 293 280 273 278 283 289 287 287 283 281 282 282 279 279 282 284 283 285 285 286 290 286 277 274 270 257 250 250 242 251 256 250
177 182 180 194 178 180 193 216 228 226 228 239 237 227 236 256 264 270 277 276 279 282 284 283 288 290 291 295 288 277 276 286 287 276 273 267 256 261 265 265 273 273 279 279 287 291 286 292 292 287 296 296 299 301 299 292 285 267 245 232 238 246
169 173 182 188 173 180 193 227 236 233 232 240 243 226 228 252 264 271 274 273 279 288 291 290 289 288 289 288 295 298 295 279 290 289 290 288 290 291 291 295 296 298 298 297 287 289 296 297 296 303 307 305 305 305 305 306 304 304 303 301 301 304
166 159 169 182 173 180 196 228 245 250 252 237 239 223 232 241 254 265 274 284 291 294 299 296 294 290 288 287 292 295 301 311 310 304 298 295 296 298 300 302 301 303 306 308 307 305 305 305 307 309 309 310 312 312 312 310 309 309 309 307 304 303
171 180 189 177 167 179 200 241 248 237 249 239 239 234 227 237 238 263 276 281 291 297 295 288 288 293 293 295 294 296 303 306 311 313 313 312 307 307 306 305 307 309 313 314 314 314 308 309 311 314 316 317 316 315 314 314 315 317 317 315 320 316
180 169 161 154 162 185 223 248 255 233 242 241 235 230 231 241 241 259 275 280 292 290 294 294 289 290 293 300 306 307 307 306 309 311 314 320 322 320 314 311 313 319 321 321 319 319 317 317 319 319 320 319 319 321 324 324 326 325 320 323 325 315
150 153 155 164 183 206 230 256 258 240 239 237 235 228 227 245 247 253 260 280 287 290 288 286 286 291 295 292 294 293 297 297 297 298 305 312 317 326 329 330 329 329 332 327 326 325 326 325 324 323 322 323 326 329 330 332 331 327 326 331 323 316
146 160 171 182 197 209 232 252 256 235 234 238 232 231 242 245 253 258 267 273 282 271 276 282 284 289 290 292 293 293 294 297 298 302 303 303 308 313 314 311 319 324 332 334 333 333 333 331 329 327 328 331 335 335 337 342 340 337 336 336 334 327
156 184 188 192 208 226 249 260 252 238 236 237 229 231 242 250 256 264 274 269 278 275 268 274 274 278 282 287 287 288 298 300 300 303 299 301 300 299 297 302 309 310 317 326 331 331 331 330 332 336 340 342 342 341 347 344 338 333 330 326 323 320